Flag for Ukraine Weather past 2 weeks in Luhansk, Ukraine

Now
36 °F

Drizzle. Fog.


Feels Like: 25 °F
Forecast: 29 / 37 °F
Wind: 20 mph from East

Location: Rostov-Na-Donu

Current Time: Feb 28, 2015 at 3:45:58 AM

Latest Report: Feb 28, 2015 at 3:00 AM


Visibility: 1 mi

Pressure: 30.07 "Hg

Humidity: 93%

Dew point: 34 °F

Location of LuhanskLocation

Historic Weather in Luhansk — Graph

°F

Luhansk temperature yesterday

Maximum temperature yesterday: 46 °F (at 3:00 PM)
Minimum temperature yesterday: 32 °F (at 2:30 AM)
Average temperature yesterday: 37 °F

Past Weeks' High & Low Weather Summary

 TemperatureHumidityPressure
High52 °F (Feb 24, 2:00 PM)100% (Feb 13, 5:30 AM)30.63 "Hg (Feb 13, 5:30 AM)
Low5 °F (Feb 18, 7:00 AM)31% (Feb 24, 6:30 PM)30.04 "Hg (Feb 19, 3:00 PM)
Average29 °F78%30.25 "Hg
* Reported Feb 13 3:00 AM — Feb 28 3:00 AM, Luhansk, Weather by CustomWeather, © 2015

Note: Actual official high and low records may vary slightly from our data, if they occured in-between our weather recording intervals... More about our weather records

Advertising

Luhansk weather history for previous 24 hours

 ConditionsComfort  
Time TempWeatherWind HumidityBarometerVisibility
3:00 AM
Sat, Feb 28
36 °FDrizzle. Fog.20 mph93%30.07 "Hg1 mi
2:30 AM36 °FFog.15 mph93%30.09 "Hg2 mi
2:00 AM36 °FFog.20 mph93%30.09 "Hg2 mi
1:30 AM36 °FFog.20 mph93%30.09 "Hg3 mi
1:00 AM36 °FFog.20 mph93%30.09 "Hg2 mi
12:30 AM37 °FMostly cloudy.20 mph93%30.12 "Hg4 mi
12:00 AM37 °FPassing clouds.20 mph93%30.12 "HgN/A
11:30 PM
Fri, Feb 27
37 °FPassing clouds.20 mph93%30.12 "HgN/A
11:00 PM37 °FPassing clouds.22 mph93%30.15 "HgN/A
10:30 PM37 °FPassing clouds.22 mph93%30.15 "HgN/A
10:00 PM37 °FPassing clouds.22 mph87%30.18 "HgN/A
9:30 PM37 °FPassing clouds.22 mph93%30.18 "HgN/A
9:00 PM37 °FPassing clouds.22 mph93%30.21 "HgN/A
8:30 PM37 °FPassing clouds.22 mph87%30.18 "HgN/A
8:00 PM37 °FPassing clouds.24 mph87%30.18 "HgN/A
7:30 PM37 °FPassing clouds.20 mph87%30.21 "HgN/A
7:00 PM39 °FClear.17 mph81%30.21 "HgN/A
6:30 PM41 °FClear.17 mph81%30.21 "HgN/A
6:00 PM43 °FSunny.15 mph76%30.21 "Hg10 mi
5:30 PM43 °FSunny.17 mph76%30.21 "Hg10 mi
5:00 PM45 °FSunny.20 mph76%30.21 "Hg10 mi
4:30 PM46 °FSunny.22 mph71%30.21 "Hg10 mi
4:00 PM46 °FSunny.22 mph71%30.24 "Hg10 mi
3:30 PM46 °FSunny.22 mph71%30.24 "Hg10 mi
3:00 PM46 °FSunny.20 mph71%30.24 "Hg10 mi
2:30 PM45 °FSunny.20 mph76%30.24 "Hg10 mi
2:00 PM45 °FPassing clouds.17 mph76%30.27 "HgN/A
1:30 PM45 °FScattered clouds.17 mph81%30.27 "HgN/A
1:00 PM41 °FPartly sunny.17 mph87%30.27 "HgN/A
12:30 PM39 °FPartly sunny.17 mph93%30.30 "Hg5 mi
12:00 PM39 °FLow clouds.15 mph93%30.30 "Hg4 mi
11:30 AM37 °FFog.15 mph100%30.30 "Hg1 mi
11:00 AM37 °FFog.17 mph100%30.30 "Hg1 mi
10:30 AM36 °FFog.17 mph100%30.33 "Hg0 mi
10:00 AM36 °FFog.13 mph100%30.33 "Hg0 mi
9:30 AM36 °FFog.15 mph100%30.33 "Hg0 mi
9:00 AM34 °FFog.15 mph100%30.33 "Hg0 mi
8:30 AM34 °FFog.17 mph100%30.33 "Hg0 mi
8:00 AM32 °FFog.15 mph100%30.33 "Hg0 mi
7:30 AM32 °FFog.15 mph100%30.33 "Hg0 mi
6:30 AM32 °FIce fog.15 mph100%30.33 "Hg0 mi
6:00 AM32 °FIce fog.13 mph100%30.33 "Hg0 mi
5:30 AM32 °FIce fog.13 mph100%30.33 "Hg0 mi
5:00 AM32 °FIce fog.10 mph100%30.33 "Hg0 mi
4:30 AM32 °FIce fog.13 mph100%30.33 "Hg0 mi
4:00 AM32 °FIce fog.13 mph93%30.33 "Hg0 mi
3:30 AM32 °FIce fog.8 mph93%30.33 "Hg1 mi
3:00 AM32 °FPassing clouds.10 mph93%30.33 "Hg4 mi
Weather by CustomWeather, © 2015

See weather overviewHow to use our weather pages